Location: Stendal
(52.5994°N, 11.8400°E)
Time: 09:07:24
(UTC+01:00)

ISS - Visible Passes

Search period start: 27 January 2021 00:00
Search period end: 06 February 2021 00:00
Orbit: 418 x 421 km, 51.6° (Epoch: 27 January)

Date Brightness Start Highest point End Pass type
(mag) Time Alt. Az. Time Alt. Az. Time Alt. Az.
27 Jan -3.6 18:00:32 10° WSW 18:03:54 68° S 18:06:15 18° E visible
27 Jan -1.9 19:37:16 10° W 19:39:13 31° W 19:39:13 31° W visible
28 Jan -3.7 18:49:56 10° W 18:53:19 75° S 18:53:50 59° ESE visible
28 Jan -0.1 20:26:47 10° W 20:26:49 10° W 20:26:49 10° W visible
29 Jan -3.7 18:02:36 10° W 18:05:59 77° S 18:08:28 17° E visible
29 Jan -1.9 19:39:24 10° W 19:41:27 31° WSW 19:41:27 31° WSW visible
30 Jan -3.4 18:52:01 10° W 18:55:22 58° SSW 18:56:07 45° SE visible
31 Jan -3.5 18:04:39 10° W 18:08:02 68° S 18:10:50 14° ESE visible
31 Jan -1.7 19:41:36 10° W 19:43:49 25° SW 19:43:49 25° SW visible
01 Feb -2.5 18:54:08 10° W 18:57:16 36° SSW 18:58:36 25° SSE visible
02 Feb -2.8 18:06:42 10° W 18:09:58 47° SSW 18:13:14 10° SE visible
02 Feb -1.1 19:44:16 10° WSW 19:46:13 15° SW 19:46:29 14° SSW visible
03 Feb -1.4 18:56:26 10° W 18:59:00 20° SW 19:01:30 10° SSE visible
04 Feb -1.7 18:08:49 10° W 18:11:45 27° SSW 18:14:40 10° SSE visible
